Weather History for Chignik, AK

Change the Weather History Date:

Sunday, December 9, 2012

  Actual Average Record
Temperature  
Mean Temperature 38 °F -  
Max Temperature 42 °F 31 °F 46 °F (2007)
Min Temperature 35 °F 25 °F 19 °F (1998)
Degree Days  
Heating Degree Days 26    
Moisture  
Dew Point 28 °F    
Average Humidity 64    
Maximum Humidity 81    
Minimum Humidity 52    
Precipitation  
Precipitation 0.00 in - - ()
Sea Level Pressure  
Sea Level Pressure 29.24 in    
Wind  
Wind Speed 14 mph (SSW)    
Max Wind Speed 30 mph    
Max Gust Speed 45 mph    
Visibility 9 miles    
Events      
Averages and records for this station are not official NWS values.
T = Trace of Precipitation, MM = Missing Value Source: NWS Daily Summary

Daily Weather History Graph

Daily Weather History Graph

Search for Another Location

Airport:

Trip Planner

Search our weather history database for the weather conditions in past years. The results will help you decide how hot, cold, wet, or windy it might be!

Date:

Astronomy

Dec. 09, 2012 Rise Set
Actual Time 9:55 AM AKST 4:57 PM AKST
Civil Twilight 9:07 AM AKST 5:44 PM AKST
Nautical Twilight 8:18 AM AKST 6:33 PM AKST
Astronomical Twilight 7:32 AM AKST 7:19 PM AKST
Moon 5:06 AM AKST (12/9) 2:41 PM AKST (12/9)
Length of Visible Light 8h 36m
Length of Day
7h 01m
Waning Crescent, 17% of the Moon is Illuminated
Dec 9
Waning Crescent
Dec 12
New
Dec 19
First Quarter
Dec 28
Full
Jan 4
Last Quarter

Hourly Weather History & Observations

Time (AKST) Temp. Windchill Dew Point Humidity Pressure Visibility Wind Dir Wind Speed Gust Speed Precip Events Conditions
12:16 AM 39.2 °F 29.6 °F 30.2 °F 70% 28.87 in 7.0 mi SSE 19.6 mph 29.9 mph N/A   Overcast
12:36 AM 41.0 °F 32.8 °F 30.2 °F 65% 28.88 in 8.0 mi South 16.1 mph 21.9 mph N/A   Overcast
12:56 AM 39.2 °F 32.0 °F 30.2 °F 70% 28.88 in 10.0 mi South 11.5 mph 20.7 mph N/A   Overcast
1:16 AM 41.0 °F 32.5 °F 30.2 °F 65% 28.88 in 9.0 mi SSE 17.3 mph 20.7 mph N/A   Overcast
1:36 AM 39.2 °F 34.2 °F 30.2 °F 70% 28.89 in 9.0 mi SE 6.9 mph 17.3 mph N/A   Overcast
1:56 AM 39.2 °F 34.2 °F 32.0 °F 75% 28.89 in 10.0 mi SE 6.9 mph 18.4 mph N/A   Overcast
2:16 AM 39.2 °F 33.0 °F 32.0 °F 75% 28.90 in 10.0 mi SE 9.2 mph - N/A   Overcast
2:36 AM 39.2 °F 34.2 °F 32.0 °F 75% 28.90 in 9.0 mi ESE 6.9 mph - N/A   Overcast
2:56 AM 39.2 °F 35.9 °F 32.0 °F 75% 28.91 in 8.0 mi SSE 4.6 mph - N/A   Overcast
3:16 AM 41.0 °F 35.2 °F 32.0 °F 70% 28.92 in 5.0 mi South 9.2 mph - N/A   Overcast
3:36 AM 41.0 °F 36.4 °F 33.8 °F 76% 28.93 in 5.0 mi WSW 6.9 mph - N/A   Overcast
3:56 AM 41.0 °F 35.8 °F 32.0 °F 70% 28.94 in 5.0 mi SW 8.1 mph - N/A   Overcast
4:16 AM 42.8 °F 40.1 °F 32.0 °F 66% 28.94 in 5.0 mi SE 4.6 mph 27.6 mph N/A   Overcast
4:36 AM 42.8 °F 32.7 °F 30.2 °F 61% 28.95 in 5.0 mi SW 27.6 mph 39.1 mph N/A   Overcast
4:56 AM 42.8 °F 34.8 °F 32.0 °F 66% 28.96 in 4.0 mi SSW 17.3 mph 44.9 mph N/A   Overcast
5:16 AM 41.0 °F 32.2 °F 32.0 °F 70% 28.98 in 5.0 mi South 18.4 mph 31.1 mph N/A   Overcast
5:36 AM 41.0 °F 31.4 °F 32.0 °F 70% 28.98 in 5.0 mi SSE 21.9 mph 31.1 mph N/A   Overcast
5:56 AM 42.8 °F 37.5 °F 30.2 °F 61% 29.01 in 6.0 mi SW 9.2 mph 29.9 mph N/A   Overcast
6:16 AM 42.8 °F 36.2 °F 30.2 °F 61% 29.01 in 9.0 mi SSW 12.7 mph 29.9 mph N/A   Overcast
6:36 AM 42.8 °F 34.5 °F 30.2 °F 61% 29.02 in 10.0 mi SW 18.4 mph 36.8 mph N/A   Overcast
6:56 AM 42.8 °F 34.5 °F 30.2 °F 61% 29.04 in 10.0 mi SSW 18.4 mph 33.4 mph N/A   Overcast
7:16 AM 42.8 °F 32.7 °F 30.2 °F 61% 29.05 in 10.0 mi SW 27.6 mph 40.3 mph N/A   Overcast
7:36 AM 42.8 °F 34.3 °F 30.2 °F 61% 29.07 in 10.0 mi South 19.6 mph 35.7 mph N/A   Overcast
7:56 AM 41.0 °F 31.9 °F 30.2 °F 65% 29.09 in 10.0 mi South 19.6 mph 38.0 mph N/A   Overcast
8:16 AM 42.8 °F 35.1 °F 30.2 °F 61% 29.11 in 10.0 mi SSW 16.1 mph 33.4 mph N/A   Overcast
8:36 AM 41.0 °F 32.2 °F 28.4 °F 61% 29.13 in 10.0 mi South 18.4 mph 42.6 mph N/A   Overcast
8:56 AM 41.0 °F 30.2 °F 28.4 °F 61% 29.13 in 10.0 mi SW 27.6 mph 38.0 mph N/A   Overcast
9:16 AM 42.8 °F 38.0 °F 28.4 °F 57% 29.16 in 10.0 mi NNE 8.1 mph 25.3 mph N/A   Overcast
9:36 AM 42.8 °F 37.5 °F 26.6 °F 53% 29.17 in 10.0 mi SW 9.2 mph - N/A   Overcast
9:56 AM 41.0 °F 36.4 °F 28.4 °F 61% 29.19 in 10.0 mi WSW 6.9 mph 21.9 mph N/A   Overcast
10:16 AM 41.0 °F 33.9 °F 28.4 °F 61% 29.21 in 10.0 mi SW 12.7 mph 29.9 mph N/A   Overcast
10:36 AM 41.0 °F 32.5 °F 28.4 °F 61% 29.23 in 10.0 mi SW 17.3 mph 36.8 mph N/A   Overcast
10:56 AM 41.0 °F 31.6 °F 28.4 °F 61% 29.24 in 10.0 mi SW 20.7 mph 35.7 mph N/A   Overcast
11:16 AM 39.2 °F 28.5 °F 28.4 °F 65% 29.25 in 10.0 mi SSW 24.2 mph 33.4 mph N/A   Overcast
11:36 AM 41.0 °F 29.8 °F 26.6 °F 57% 29.25 in 10.0 mi SSW 29.9 mph 44.9 mph N/A   Mostly Cloudy
11:56 AM - - - N/A% 29.27 in 10.0 mi SW 24.2 mph 36.8 mph N/A   Mostly Cloudy
12:16 PM - - - N/A% 29.29 in 6.0 mi SSW 29.9 mph 36.8 mph N/A   Mostly Cloudy
12:36 PM 39.2 °F 27.8 °F 26.6 °F 61% 29.31 in 9.0 mi SSW 27.6 mph 35.7 mph N/A   Overcast
12:56 PM 37.4 °F 29.8 °F 28.4 °F 70% 29.33 in 10.0 mi South 11.5 mph 23.0 mph N/A   Mostly Cloudy
1:16 PM 39.2 °F 29.6 °F 26.6 °F 61% 29.34 in 10.0 mi SW 19.6 mph 32.2 mph N/A   Overcast
1:36 PM 39.2 °F 29.8 °F 26.6 °F 61% 29.34 in 10.0 mi SSW 18.4 mph 41.4 mph N/A   Mostly Cloudy
1:56 PM 39.2 °F 29.3 °F 26.6 °F 61% 29.34 in 10.0 mi SSW 20.7 mph 38.0 mph N/A   Mostly Cloudy
2:16 PM 39.2 °F 30.5 °F 26.6 °F 61% 29.36 in 10.0 mi SW 16.1 mph 31.1 mph N/A   Overcast
2:36 PM 39.2 °F 29.8 °F 26.6 °F 61% 29.37 in 10.0 mi SW 18.4 mph 28.8 mph N/A   Mostly Cloudy
2:56 PM 39.2 °F 29.0 °F 26.6 °F 61% 29.37 in 10.0 mi SW 21.9 mph 32.2 mph N/A   Overcast
3:16 PM 39.2 °F 29.8 °F 26.6 °F 61% 29.39 in 9.0 mi WSW 18.4 mph 23.0 mph N/A   Mostly Cloudy
3:36 PM 39.2 °F 32.5 °F 26.6 °F 61% 29.41 in 10.0 mi WSW 10.4 mph 19.6 mph N/A   Scattered Clouds
3:56 PM 37.4 °F 30.3 °F 26.6 °F 65% 29.42 in 10.0 mi WNW 10.4 mph - N/A   Mostly Cloudy
4:16 PM 37.4 °F 32.1 °F 28.4 °F 70% 29.43 in 10.0 mi NW 6.9 mph - N/A   Scattered Clouds
4:36 PM 35.6 °F 28.6 °F 30.2 °F 81% 29.45 in 10.0 mi NE 9.2 mph - N/A   Scattered Clouds
4:56 PM 35.6 °F 29.9 °F 28.4 °F 75% 29.46 in 10.0 mi NNE 6.9 mph - N/A   Mostly Cloudy
5:16 PM 35.6 °F 31.7 °F 28.4 °F 75% 29.47 in 10.0 mi NE 4.6 mph - N/A   Overcast
5:36 PM 37.4 °F 33.8 °F 28.4 °F 70% 29.48 in 10.0 mi NNW 4.6 mph - N/A   Overcast
5:56 PM 39.2 °F 33.6 °F 26.6 °F 61% 29.48 in 10.0 mi South 8.1 mph - N/A   Overcast
6:16 PM 39.2 °F 34.2 °F 24.8 °F 56% 29.48 in 10.0 mi SSW 6.9 mph - N/A   Scattered Clouds
6:36 PM 39.2 °F 34.2 °F 24.8 °F 56% 29.48 in 10.0 mi South 6.9 mph - N/A   Clear
6:56 PM 39.2 °F - 23.0 °F 52% 29.49 in 10.0 mi Calm Calm - N/A   Partly Cloudy
7:16 PM 39.2 °F - 24.8 °F 56% 29.49 in 10.0 mi Calm Calm - N/A   Mostly Cloudy
7:36 PM 39.2 °F 33.0 °F 24.8 °F 56% 29.50 in 10.0 mi South 9.2 mph 19.6 mph N/A   Scattered Clouds
7:56 PM 39.2 °F 30.5 °F 26.6 °F 61% 29.50 in 10.0 mi SSW 16.1 mph 32.2 mph N/A   Clear
8:16 PM 39.2 °F 30.2 °F 26.6 °F 61% 29.50 in 10.0 mi SW 17.3 mph 20.7 mph N/A   Clear
8:36 PM 39.2 °F 33.6 °F 26.6 °F 61% 29.52 in 10.0 mi SW 8.1 mph - N/A   Partly Cloudy
8:56 PM 39.2 °F 32.5 °F 26.6 °F 61% 29.52 in 10.0 mi SW 10.4 mph - N/A   Partly Cloudy
9:16 PM 39.2 °F 33.6 °F 26.6 °F 61% 29.52 in 10.0 mi South 8.1 mph - N/A   Mostly Cloudy
9:36 PM 39.2 °F 32.0 °F 26.6 °F 61% 29.52 in 10.0 mi SW 11.5 mph - N/A   Mostly Cloudy
9:56 PM 39.2 °F 29.3 °F 26.6 °F 61% 29.52 in 10.0 mi SW 20.7 mph 25.3 mph N/A   Mostly Cloudy
10:16 PM 39.2 °F 32.5 °F 24.8 °F 56% 29.52 in 10.0 mi SW 10.4 mph 26.5 mph N/A   Mostly Cloudy
10:36 PM 39.2 °F 32.5 °F 26.6 °F 61% 29.53 in 10.0 mi SW 10.4 mph 21.9 mph N/A   Scattered Clouds
10:56 PM 39.2 °F 30.8 °F 24.8 °F 56% 29.53 in 10.0 mi SW 15.0 mph 23.0 mph N/A   Scattered Clouds
11:16 PM 39.2 °F 33.0 °F 24.8 °F 56% 29.53 in 10.0 mi SW 9.2 mph - N/A   Overcast
11:56 PM 37.4 °F 30.8 °F 24.8 °F 60% 29.53 in 10.0 mi NE 9.2 mph - N/A   Scattered Clouds